Location: Arroyo Seco
(32.9053°N, 116.5831°W)
Time: 10:01:54
(UTC+00:00)

Daily predictions for brighter satellites

Satellite Brightness Start Highest point End
(mag) Time Altitude Azimuth Time Altitude Azimuth Time Altitude Azimuth
USA 238 DEB 4.4 12:10:11 37° N 12:10:11 37° N 12:14:26 10° NNE
USA 238 4.3 12:10:15 38° N 12:10:15 38° N 12:14:32 10° NNE
Cosmos 2034 Rocket 4.0 12:08:28 48° N 12:10:20 81° E 12:16:38 10° S
Chandra Rocket (1) 4.2 12:15:52 14° SSE 12:15:52 14° SSE 12:16:20 10° SE
Cosmos 1867 4.5 12:13:50 35° NNE 12:15:22 44° ENE 12:20:33 10° SE
Cosmos 1656 Rocket 4.3 12:19:39 10° S 12:24:52 53° ESE 12:30:07 10° NNE
Cosmos 1486 Rocket 4.3 12:23:36 10° S 12:28:52 68° ESE 12:34:07 10° NNE
Cosmos 1943 Rocket 4.0 12:34:38 17° N 12:34:38 17° N 12:36:07 10° N
CZ-2C R/B 4.0 12:27:32 10° SE 12:32:34 37° ENE 12:37:31 10° N
Tsikada Rocket 3.8 12:26:33 10° SSW 12:32:41 69° W 12:38:54 10° N
APEX 4.1 12:34:36 39° ESE 12:34:36 39° ESE 12:37:08 10° SE
Cosmos 2082 Rocket 3.4 12:45:15 25° SW 12:45:15 25° SW 12:48:14 10° SSW
CZ-4B R/B 4.2 12:48:11 10° NNE 12:52:40 77° ESE 12:57:06 10° S
Cosmos 1812 3.5 12:52:28 10° N 12:56:13 51° E 12:59:56 10° SSE
Okean 3 Rocket 4.0 12:51:54 10° S 12:56:22 64° E 13:00:52 10° NNE
SL-19 R/B 4.2 12:51:30 10° SSE 12:57:11 90° NW 13:02:46 10° NNW
Cosmos 1241 Rocket 4.4 12:53:49 20° NNW 12:58:17 86° ENE 13:04:30 10° SSE
Cosmos 921 Rocket 3.5 12:54:48 14° N 12:58:34 62° ENE 13:02:59 10° SSE
MOS 1-B Rocket 4.0 12:52:07 10° SSE 12:58:51 85° WSW 13:04:46 10° NNW
DELTA 2 R/B (1) 3.6 12:56:59 38° W 12:58:56 61° NNW 13:04:27 10° ENE
Cosmos 2098 Rocket 2.6 12:55:59 10° S 12:59:27 81° W 13:03:47 10° N
Envisat 2.9 12:55:15 10° N 13:00:18 70° WNW 13:05:20 10° SSW
Cosmos 968 Rocket 4.5 13:03:36 26° NW 13:03:36 26° NW 13:06:41 10° N
CZ-3 R/B 3.9 12:51:00 10° SW 13:05:32 30° S 13:11:06 10° ESE
Cosmos 1766 Rocket 3.4 13:04:06 10° S 13:08:25 79° W 13:12:46 10° N
Meteor 2-3 Rocket 4.5 13:05:16 10° SW 13:10:04 29° WNW 13:14:58 10° NNW
CENTAUR R/B 4.0 13:12:13 16° NW 13:12:13 16° NW 13:16:00 10° N
Cosmos 1151 Rocket 3.2 13:07:52 10° N 13:12:15 77° E 13:16:37 10° S
Meteor 1-31 Rocket 2.8 13:10:45 10° N 13:14:34 55° WNW 13:18:23 10° SSW
Cosmos 1782 3.1 13:14:09 28° NW 13:15:38 41° W 13:19:20 10° SSW
Hubble Space Telescope 2.5 13:15:04 16° SW 13:16:52 21° SSW 13:20:00 10° SSE
Cosmos 1862 3.2 13:13:15 10° SSW 13:17:08 60° W 13:21:02 10° N
ATLAS 5 CENTAUR R/B 2.4 13:15:51 10° S 13:19:22 43° ESE 13:23:06 10° NE
Cosmos 1354 Rocket 3.9 13:16:19 10° SSW 13:21:34 82° WNW 13:26:53 10° NNE
FALCON 9 R/B 4.0 13:05:29 20° W 13:24:31 87° N 13:31:11 10° E
Cosmos 1328 Rocket 3.7 13:21:37 10° N 13:26:00 76° E 13:30:18 10° S
COSMO-SKYMED 1 2.6 13:22:00 10° S 13:26:15 59° W 13:30:32 10° NNW
H-2A R/B 3.6 13:23:12 10° NNW 13:26:19 25° WNW 13:29:27 10° SW
ADEOS 3.5 13:21:35 10° N 13:26:49 80° WNW 13:32:01 10° SSW
CZ-4C R/B 2.9 13:25:52 10° SSE 13:29:01 72° ENE 13:32:08 10° N
CZ-2C R/B 3.1 13:31:10 10° NNE 13:36:06 81° ESE 13:41:17 10° S
Gbstr 26 Del rocket 3.5 13:33:47 19° WNW 13:36:15 40° SW 13:40:30 10° SSE
ATLAS 3B R/B 3.1 13:32:08 10° SSW 13:38:29 66° ESE 13:45:05 10° NE
SMAP 4.4 13:34:33 10° NNE 13:39:00 43° E 13:43:24 10° S
CZ-4B R/B 2.6 13:37:22 10° NNE 13:40:56 87° ESE 13:44:32 10° SSW
Cosmos 1408 Rocket 3.4 13:39:13 10° SSW 13:43:29 70° W 13:47:47 10° N
IRAS Rocket 4.5 13:39:14 10° SSE 13:44:43 74° ENE 13:50:12 10° N
Cosmos 2369 Rocket 3.4 13:43:13 10° WSW 13:47:08 19° WNW 13:51:04 10° NNW
OAO 3 Rocket 4.5 13:43:59 11° W 13:48:02 30° SSW 13:52:20 10° SSE
Uosat 12 SS-18 rocket 4.5 13:44:06 10° SW 13:48:50 64° WNW 13:54:41 10° NNE
Centaur D-1A AC-35 3.7 13:46:35 10° WSW 13:50:11 30° S 13:53:53 10° ESE
Cosmos 1743 Rocket 3.9 13:46:44 10° S 13:51:06 69° E 13:55:27 10° NNE
FengYun 1-2 T 4.3 13:52:00 10° NNE 13:57:31 84° ESE 14:03:00 10° SSW
H-2A R/B 3.8 13:56:30 10° NNE 14:00:58 35° E 14:05:28 10° SSE
USA 215 3.5 13:54:44 10° SE 14:01:14 73° NE 14:07:44 10° NW
FAST Rocket 3.8 13:58:53 10° S 14:01:41 80° W 14:04:19 10° N
Cosmos 2279 Rocket 4.4 13:56:12 10° NNW 14:01:56 42° W 14:07:41 10° SSW
Nadezhda 4 Rocket 4.0 13:58:49 10° SSW 14:04:51 61° W 14:11:00 10° N
DMSP B5D2-2 4.1 14:00:30 10° S 14:05:41 71° WSW 14:10:54 10° NNW
Cosmos 1515 Rocket 3.5 14:02:22 10° NNW 14:06:42 68° W 14:10:59 10° S
SJ 16-02 1.4 14:03:20 10° SSW 14:07:38 56° WNW 14:11:57 10° N
SL-27 R/B 3.3 14:05:06 10° N 14:08:36 53° ENE 14:12:01 10° SSE
Cosmos 1340 Rocket 2.7 14:04:52 10° SSW 14:08:44 65° W 14:12:41 10° N
Meteor 1-20 Rocket 4.3 14:06:50 10° S 14:12:21 85° E 14:17:59 10° N
